Flag for U.S.A. Weather past 2 weeks in Syracuse, New York, U.S.A.

Now
67 °F

Passing clouds.


Feels Like: 67 °F
Forecast: 67 / 89 °F
Wind: No wind

Location: Syracuse Hancock International Airport

Current Time: Jul 22, 2014 at 5:58:42 AM

Latest Report: Jul 22, 2014 at 4:54 AM


Visibility: 7 mi

Pressure: 30.10 "Hg

Humidity: 93%

Dew point: 65 °F

Location of SyracuseLocation

Historic Weather in Syracuse — Graph

°F

Syracuse temperature yesterday

Maximum temperature yesterday: 87 °F (at 3:54 PM)
Minimum temperature yesterday: 66 °F (at 2:54 AM)
Average temperature yesterday: 77 °F

Past Weeks' High & Low Weather Summary

 TemperatureHumidityPressure
High89 °F (Jul 12, 3:54 PM)100% (Jul 15, 5:54 AM)30.25 "Hg (Jul 15, 5:54 AM)
Low53 °F (Jul 11, 5:54 AM)35% (Jul 11, 4:54 PM)29.48 "Hg (Jul 8, 5:54 PM)
Average71 °F68%29.96 "Hg
* Reported Jul 7 4:54 AM — Jul 22 4:54 AM, Syracuse, Weather by CustomWeather, © 2014

Note: Actual official high and low records may vary slightly from our data, if they occured in-between our weather recording intervals... More about our weather records

Advertising

Syracuse weather history for previous 24 hours

 ConditionsComfort  
Time TempWeatherWind HumidityBarometerVisibility
4:54 AM
Jul 22
67 °FPassing clouds.No wind93%30.10 "Hg7 mi
3:54 AM68 °FPassing clouds.No wind90%30.09 "Hg9 mi
2:54 AM70 °FPassing clouds.No wind87%30.09 "Hg10 mi
1:54 AM71 °FPassing clouds.No wind84%30.09 "Hg10 mi
12:54 AM74 °FOvercast.No wind79%30.09 "Hg10 mi
11:54 PM
Jul 21
75 °FPassing clouds.No wind79%30.09 "Hg10 mi
10:54 PM75 °FPartly cloudy.No wind79%30.09 "Hg10 mi
9:54 PM76 °FPartly cloudy.No wind74%30.10 "Hg10 mi
8:54 PM78 °FBroken clouds.5 mph69%30.08 "Hg10 mi
7:54 PM81 °FBroken clouds.3 mph65%30.08 "Hg10 mi
6:54 PM82 °FBroken clouds.3 mph60%30.08 "Hg10 mi
5:54 PM83 °FBroken clouds.5 mph59%30.07 "Hg10 mi
4:54 PM87 °FBroken clouds.5 mph45%30.08 "Hg10 mi
3:54 PM87 °FBroken clouds.9 mph45%30.08 "Hg10 mi
2:54 PM86 °FBroken clouds.8 mph46%30.09 "Hg10 mi
1:54 PM83 °FBroken clouds.6 mph51%30.11 "Hg10 mi
12:54 PM83 °FBroken clouds.No wind53%30.12 "Hg10 mi
11:54 AM80 °FBroken clouds.3 mph58%30.12 "Hg10 mi
10:54 AM81 °FBroken clouds.No wind54%30.14 "Hg10 mi
9:54 AM80 °FScattered clouds.8 mph56%30.13 "Hg10 mi
8:54 AM76 °FScattered clouds.3 mph64%30.14 "Hg10 mi
7:54 AM70 °FOvercast.No wind76%30.14 "Hg10 mi
6:54 AM68 °FMostly cloudy.No wind78%30.12 "Hg10 mi
5:54 AM67 °FMostly cloudy.3 mph79%30.11 "Hg10 mi
Weather by CustomWeather, © 2014

See weather overviewHow to use our weather pages